GLOBALSTAR M096 [+]

Last updated on July 6, 2021, 3:36 p.m. UTC

1 39075U 13005D   21186.85316442 -.00000103  00000-0  60172-5 0  9990
2 39075  52.0083 300.9934 0000490 104.5487 255.5434 12.62268525389157
UTC
Height (km)
Latitude
Longitude
Inclination
Orbital Period
UTC large
Height (km)
Speed (km/s)
/
Latitude / Longitude
Inclination (degrees)
Orbital Period (minutes)
Azimuth
Elevation
Range (km)
Doppler Factor
iOS Compass Heading
iOS Angle